This demonstration page uses our WeatherBlox Daily Observations layout. Learn more.

Left ArrowRight Arrow

Hourly Observations for June 27, 2022

Temp ( °F °C ) Dew Point ( °F °C ) Humidity (%) Winds ( mph kmh ) Pressure ( in mb ) Visibility ( mi km ) Precip ( " mm )
12:53 am 00:53 Clear 70 21.1 59 15 68 68 NW 7 11 30.09 1019 10 16 0.00 0.00
1:53 am 01:53 Partly Cloudy 65 18.3 60 15.6 84 84 NW 5 7 30.09 1019 10 16 0.00 0.00
2:53 am 02:53 Clear 62 16.7 60 15.6 93 93 Calm 30.09 1019 10 16 0.00 0.00
3:53 am 03:53 Clear 61 16.1 59 15 93 93 Calm 30.10 1019 10 16 0.00 0.00
4:53 am 04:53 Clear 59 15 57 13.9 93 93 Calm 30.12 1020 10 16 0.00 0.00
5:53 am 05:53 Clear 57 13.9 55 12.8 93 93 Calm 30.14 1021 10 16 0.00 0.00
6:53 am 06:53 Sunny 59 15 57 13.9 93 93 Calm 30.16 1021 10 16 0.00 0.00
7:53 am 07:53 Sunny 65 18.3 56 13.3 73 73 NNW 3 6 30.18 1022 10 16 0.00 0.00
8:53 am 08:53 Sunny 69 20.6 55 12.8 61 61 N 6 9 30.19 1023 10 16 0.00 0.00
9:53 am 09:53 Sunny 72 22.2 51 10.6 48 48 N 6 9 30.21 1023 10 16 0.00 0.00
10:53 am 10:53 Sunny 74 23.3 50 10 43 43 VRB 7 11 30.22 1023 10 16 0.00 0.00
11:53 am 11:53 Sunny 76 24.4 50 10 40 40 NE 9 15 30.21 1023 10 16 0.00 0.00
12:53 pm 12:53 Sunny 76 24.4 48 8.9 37 37 Calm 30.21 1023 10 16 0.00 0.00
1:53 pm 13:53 Sunny 78 25.6 48 8.9 35 35 VRB 3 6 30.19 1023 10 16 0.00 0.00
2:53 pm 14:53 Mostly Sunny 80 26.7 50 10 35 35 NW 9 15 30.18 1022 10 16 0.00 0.00
3:53 pm 15:53 Partly Cloudy 80 26.7 50 10 35 35 VRB 6 9 30.16 1022 10 16 0.00 0.00
4:53 pm 16:53 Mostly Sunny 81 27.2 51 10.6 35 35 VRB 6 9 30.16 1021 10 16 0.00 0.00
5:53 pm 17:53 Sunny 80 26.7 48 8.9 33 33 NNW 12 19 30.15 1021 10 16 0.00 0.00
6:53 pm 18:53 Mostly Sunny 79 26.1 50 10 36 36 NW 10 17 30.14 1021 10 16 0.00 0.00
7:53 pm 19:53 Sunny 76 24.4 47 8.3 36 36 NNW 10 17 30.16 1021 10 16 0.00 0.00
8:53 pm 20:53 Sunny 71 21.7 46 7.8 41 41 NNW 7 11 30.16 1022 10 16 0.00 0.00
9:53 pm 21:53 Clear 65 18.3 47 8.3 52 52 NNW 6 9 30.18 1022 10 16 0.00 0.00
10:53 pm 22:53 Clear 64 17.8 45 7.2 50 50 NNW 6 9 30.21 1023 10 16 0.00 0.00
11:53 pm 23:53 Clear 60 15.6 50 10 70 70 NNW 3 6 30.23 1024 10 16 0.00 0.00

Powered by AerisWeather